Location: ?ern� Novina
(50.6762°N, 14.8696°E)
Time: 14:01:22
(UTC+00:00)

Cosmos 1727 Rocket - Pass Details

Date: 03 March 2021
Orbit: 961 x 996 km, 82.9° (Epoch: 11 April)

Event Time Altitude Azimuth Distance (km) Brightness Sun altitude
Rises 18:41:02 0° 352° (N) 3,660 7.3 -19.0°
Reaches altitude 10° 18:43:35 10° 356° (N) 2,710 6.5 -19.4°
Maximum altitude 18:49:43 60° 76° (ENE) 1,096 4.0 -20.3°
Enters shadow 18:52:57 28° 146° (SE) 1,713 4.9 -20.8°
